SCP
0 0 0 0 0 0 0 0 0 0 0 0 0 0 0 0 0 0 0 0 0 0 0 0 0 0 0 0 0 0 0 0 0 0 0 0 0 0 0 0 0 0 0
0 0 0 0 0 0 0 0 0 0 0 0 0 0 0 0 0 0 0 0 0 0 0 0 0 0 0 0 0 0 0 0 0 0 0 0 0 0 0 0 0 0 0
0 0 0 0 0 0 0 0 0 0 0 0 0 0 0 0 0 0 0 0 0 0 0 0 0 0 0 0 0 0 0 0 0 0 0 0 0 0 0 0 0 0 0
0 0 0 0 0 0 0 0 0 0 0 0 0 0 0 0 0 0 0 0 0 0 0 0 0 0 0 0 0 0 0 0 0 0 0 0 0 0 0 0 0 0 0
0 0 0 0 0 0 0 0 0 0 0 0 0 0 0 0 0 0 0 0 0 0 0 0 0 0 0 0 0 0 0 0 0 0 0 0 0 0 0 0 0 0 0
0 0 0 0 0 0 0 0 0 0 0 0 0 0 0 0 0 0 0 0 0 0 0 0 0 0 0 0 0 0 0 0 0 0 0 0 0 0 0 0 0 0 0
0 0 0 0 0 0 0 0 0 0 0 0 0 0 0 0 0 0 0 0 0 0 0 0 0 0 0 0 0 0 0 0 0 0 0 0 0 0 0 0 0 0 0
0 0 0 0 0 0 0 0 0 0 0 0 0 0 0 0 0 0 0 0 0 0 0 0 0 0 0 0 0 0 0 0 0 0 0 0 0 0 0 0 0 0 0
0 0 0 0 0 0 0 0 0 0 0 0 0 0 0 0 0 0 0 0 0 0 0 0 0 0 0 0 0 0 0 0 0 0 0 0 0 0 0 0 0 0 0
0 0 0 0 0 0 0 0 0 0 0 0 0 0 0 0 0 0 0 0 0 0 0 0 0 0 0 0 0 0 0 0 0 0 0 0 0 0 0 0 0 0 0
0 0 0 0 0 0 0 0 0 0 0 0 0 0 0 0 0 0 0 0 0 0 0 0 0 0 0 0 0 0 0 0 0 0 0 0 0 0 0 0 0 0 0
0 0 0 0 0 0 0 0 0 0 0 0 0 0 0 0 0 0 0 0 0 0 0 0 0 0 0 0 0 0 0 0 0 0 0 0 0 0 0 0 0 0 0
0 0 0 0 0 0 0 0 0 0 0 0 0 0 0 0 0 0 0 0 0 0 -0 -0 -0 -0 0 0 0 0 0 0 0 0 0 0 0 0 0 0 0 0 0
0 0 0 0 0 0 0 0 0 0 0 0 0 0 0 0 0 0 0 0 0 0 0 -0 -0 -0 0 0 0 0 0 0 0 0 0 0 0 0 0 0 0 0 0
0 0 0 0 0 0 0 0 0 0 0 0 0 0 0 0 0 0 0 0 0 0 0 0 0 0 0 0 0 0 0 0 0 0 0 0 0 0 0 0 0 0 0
0 0 0 0 0 0 0 0 0 0 0 0 0 0 0 0 0 0 0 0 0 0 0 0 0 0 0 0 0 0 0 0 0 0 0 0 0 0 0 0 0 0 0
0 0 0 0 0 0 0 0 0 0 0 0 0 0 0 0 0 0 0 0 0 0 0 0 0 0 0 0 0 0 0 0 0 0 0 0 0 0 0 0 0 0 0
0 0 0 0 0 0 0 0 0 0 0 0 0 0 0 0 0 0 0 0 0 0 0 0 0 0 0 0 0 0 0 0 0 0 0 0 0 0 0 0 0 0 0
0 0 0 0 0 0 0 0 0 0 0 0 0 0 0 0 0 0 0 0 0 0 0 0 0 0 0 0 0 0 0 0 0 0 0 0 0 0 0 0 0 0 0
1 1 1 1 1 0 1 1 1 0 0 0 0 0 0 0 0 0 0 0 0 0 0 0 0 0 0 0 0 0 0 0 0 0 0 0 0 0 0 0 0 0 0
1 1 1 1 1 0 0 0 1 1 1 0 0 0 0 0 0 0 0 0 0 0 0 0 0 0 0 0 0 0 0 0 0 0 0 0 0 0 0 0 0 0 0
1 1 1 1 1 0 0 0 0 1 1 1 1 0 0 0 0 0 0 0 0 0 0 0 0 0 0 0 0 0 0 0 0 0 0 0 0 0 0 0 0 0 0
1 1 1 1 1 0 0 0 0 0 1 1 1 1 0 0 0 0 0 0 0 0 0 0 0 0 0 0 0 0 0 0 0 0 0 0 0 0 0 0 0 0 0
1 1 1 1 1 1 0 0 0 0 1 1 1 1 0 0 0 0 0 0 0 0 0 0 0 0 0 0 0 0 0 0 0 0 0 0 0 0 0 0 0 0 0
1 1 1 1 1 1 0 0 0 0 1 1 1 1 0 0 0 0 0 0 0 0 0 0 0 0 0 0 0 0 0 0 0 0 0 0 0 0 0 0 0 0 0
1 1 1 1 1 1 0 0 0 0 1 1 1 0 0 0 0 0 0 0 0 0 0 0 0 0 0 0 0 0 0 0 0 0 0 0 0 0 0 0 0 0 0
Wind_Speed
2 1 1 1 1 1 2 1 1 1 0 0 1 1 1 2 3 3 3 7 8 8 9 10 10 11 11 11 11 11 11 11 10 9 9 9 9 9 9 8 8 8 7
2 2 1 1 1 1 2 2 1 1 0 0 1 1 1 2 3 3 3 5 8 8 9 10 11 11 11 12 11 11 11 11 11 10 10 10 10 10 10 9 9 8 8
3 2 2 1 1 1 2 1 1 1 1 1 1 1 1 2 3 4 4 3 4 8 9 10 10 11 12 12 12 12 12 12 11 11 11 10 10 10 10 10 10 9 9
3 3 2 2 2 1 1 1 1 1 1 1 1 1 1 2 3 4 3 4 4 4 6 10 11 11 12 12 12 13 12 12 12 12 12 11 11 10 11 11 10 10 10
4 3 2 2 2 2 2 2 2 2 2 1 1 1 1 2 3 3 4 4 4 4 4 6 10 11 12 13 13 13 13 12 13 13 13 13 12 11 11 11 10 10 10
4 4 2 2 2 2 2 2 2 1 2 2 1 1 1 2 2 3 4 3 3 4 4 4 4 6 10 11 11 12 13 13 14 14 13 13 13 12 11 11 11 10 10
4 4 3 3 3 3 3 3 2 2 1 1 1 1 2 2 2 2 2 2 3 4 4 4 3 3 4 7 9 11 12 13 13 13 13 13 13 12 11 12 11 11 11
4 4 4 3 3 3 3 3 2 2 1 2 2 1 2 3 2 1 1 2 3 3 4 4 4 4 4 3 4 8 10 11 12 12 11 11 11 11 10 11 11 11 11
4 4 4 4 3 3 3 3 3 4 2 1 2 2 2 2 2 2 1 1 2 2 3 3 4 5 5 4 4 6 9 8 9 10 10 10 10 10 10 10 10 9 9
3 4 4 4 4 3 3 3 3 3 3 2 1 1 2 2 1 2 2 1 2 3 3 3 3 4 4 4 4 6 7 7 7 8 9 9 9 9 10 10 10 10 9
2 3 4 4 4 3 4 3 3 3 3 3 3 2 2 1 1 2 2 2 2 2 2 3 2 2 3 3 3 5 6 6 6 6 6 7 7 8 8 9 10 10 10
1 2 3 3 4 3 4 4 4 4 3 3 2 2 2 2 2 2 3 2 2 2 1 1 2 2 2 2 3 4 5 5 5 5 4 5 6 7 7 8 9 9 10
2 3 3 4 3 3 3 3 3 3 4 4 3 3 3 3 2 2 2 2 2 2 1 1 1 1 2 1 2 3 3 4 4 4 3 4 4 5 6 6 7 7 8
4 4 4 4 4 4 4 4 3 3 3 4 4 4 3 3 3 3 3 2 1 1 1 2 1 1 1 1 2 2 2 3 3 2 3 3 3 3 3 3 4 4 5
3 4 4 4 4 4 4 4 3 3 3 3 4 4 3 3 3 3 3 3 3 2 3 2 1 1 1 1 1 1 2 2 2 2 3 3 3 3 3 2 2 2 2
4 4 4 4 4 4 4 3 3 3 3 3 3 3 3 3 2 3 3 3 3 3 3 2 2 1 1 1 1 1 1 1 2 2 3 3 3 3 3 2 2 2 2
4 4 5 4 4 4 4 4 4 4 4 4 3 4 4 3 2 2 2 3 3 3 3 2 1 1 1 1 1 1 1 1 1 2 2 2 3 2 2 2 2 2 2
5 5 5 5 5 5 5 5 5 4 4 4 4 4 4 3 3 3 3 3 3 3 3 3 2 2 2 2 2 2 1 1 1 2 2 2 3 3 2 2 2 2 2
4 4 4 5 5 5 5 5 5 4 5 5 5 5 4 4 4 3 3 3 3 2 2 2 2 1 1 1 1 1 1 1 1 2 2 2 3 3 3 3 3 2 2
4 5 5 5 5 4 5 5 5 5 5 5 5 5 5 5 5 5 4 4 3 3 2 2 2 1 2 1 1 2 2 1 2 1 1 2 3 3 3 3 3 3 3
5 5 4 4 3 3 4 4 5 5 5 5 4 4 5 5 6 5 4 4 4 3 3 3 2 2 2 2 3 2 3 2 2 2 2 2 2 2 2 3 4 4 4
4 4 4 4 4 4 5 6 5 5 5 5 5 4 4 5 6 6 6 6 6 5 4 3 3 4 4 4 3 3 2 2 2 2 3 2 2 2 2 2 3 4 4
4 4 4 4 4 5 6 6 7 5 4 4 5 4 3 3 4 3 4 4 5 5 6 5 5 5 4 5 4 4 4 4 3 1 2 2 2 3 2 2 4 5 5
4 5 5 5 5 5 6 7 6 5 4 4 4 4 4 3 3 4 3 3 3 3 5 4 5 5 4 4 5 5 5 3 1 1 2 2 2 2 1 2 4 5 5
4 5 5 6 5 5 5 6 6 4 4 4 4 4 4 4 3 4 4 4 3 3 2 3 3 2 2 2 3 3 3 2 2 2 2 2 2 1 1 1 2 5 6
5 4 4 4 4 4 4 6 6 3 3 3 3 3 3 3 3 5 5 4 4 3 2 1 1 0 0 1 2 3 4 3 2 2 3 3 2 1 1 1 1 2 3
Wind_Direction
136 123 114 107 116 121 126 130 127 115 99 69 111 155 192 204 202 199 210 219 222 218 215 212 207 205 204 203 203 202 202 202 201 202 204 203 202 201 203 203 206 208 210
155 155 158 151 154 155 152 155 166 169 226 246 292 258 231 224 216 209 211 223 228 223 222 218 212 211 211 211 210 208 209 210 208 208 211 211 210 209 211 211 212 214 217
168 165 167 176 187 169 155 148 155 148 216 238 275 272 246 230 222 215 214 218 226 229 227 223 219 218 219 220 217 215 214 213 212 213 214 215 216 214 214 216 217 219 221
176 168 175 193 183 162 159 165 162 155 202 230 254 268 260 249 238 223 219 222 222 230 233 229 226 224 226 227 226 223 220 218 216 216 217 218 219 217 218 218 220 222 224
182 175 187 194 173 167 177 191 166 167 191 219 239 254 261 253 245 233 227 228 225 227 232 240 234 230 231 233 232 230 224 220 219 220 221 221 222 221 221 220 222 224 226
184 176 188 191 172 172 183 181 171 172 189 202 239 285 284 264 243 236 236 231 227 228 227 231 235 238 236 237 236 233 228 225 223 222 224 225 225 221 220 220 221 225 227
185 177 191 187 180 186 192 177 164 171 185 154 106 337 320 287 255 247 243 237 236 232 226 225 226 229 240 241 240 239 235 232 226 224 227 228 227 225 223 223 223 225 227
190 191 187 191 186 180 178 172 165 159 183 161 148 122 331 330 320 284 253 234 238 233 234 234 224 226 234 236 237 240 240 236 232 230 229 228 226 225 225 225 226 227 228
192 189 186 185 184 177 188 191 181 174 186 195 177 163 175 242 300 311 276 253 242 232 240 242 236 233 231 230 235 240 240 238 236 236 232 226 225 223 223 226 227 226 225
190 188 186 182 181 182 192 202 191 187 176 192 198 211 199 179 199 303 310 288 266 251 250 248 245 236 230 229 229 232 233 231 235 237 234 227 225 223 219 221 224 225 227
196 194 184 175 181 190 200 200 190 193 189 188 185 182 188 192 189 208 277 304 305 268 252 245 243 240 229 227 229 226 222 221 225 231 232 225 219 218 219 223 228 230 230
207 202 183 179 188 197 202 200 196 198 201 197 191 186 181 181 193 195 232 265 283 286 283 261 242 238 236 227 228 219 215 212 216 220 224 225 224 220 222 228 231 233 232
209 213 196 189 196 202 202 191 190 202 200 197 200 205 207 207 184 182 199 234 260 286 299 272 245 237 233 224 233 214 210 203 203 203 205 218 224 226 226 227 231 235 234
213 205 195 198 203 201 201 191 195 204 198 202 208 205 210 218 199 195 192 192 240 275 269 264 264 225 230 223 231 217 203 185 186 192 201 212 217 222 220 215 224 232 228
207 196 193 197 201 194 192 186 198 207 196 203 212 215 218 222 210 213 209 198 195 234 258 244 244 239 221 212 217 201 202 193 192 190 185 187 194 195 191 192 204 215 219
207 190 193 195 192 189 188 187 200 209 206 218 217 218 222 226 220 213 214 213 205 208 237 237 229 252 232 215 193 199 208 189 186 178 179 179 182 190 193 189 199 212 218
197 193 192 192 193 195 193 195 205 200 210 224 226 225 232 219 211 211 207 206 207 197 221 247 223 232 202 208 205 199 212 216 206 186 187 179 171 170 177 187 191 201 217
200 199 194 197 200 201 197 201 214 209 212 223 227 225 235 221 211 213 208 211 215 209 206 233 230 213 213 211 215 219 220 212 219 196 188 182 180 179 172 169 179 180 182
201 198 198 206 208 205 200 204 210 213 216 223 221 219 226 214 221 220 217 218 220 214 201 210 233 221 226 204 211 225 225 232 226 210 199 200 199 192 187 184 179 173 169
201 205 208 212 212 211 207 206 206 212 217 221 220 220 222 214 220 217 218 220 212 203 199 205 226 230 234 214 206 221 233 230 234 221 205 202 208 205 201 196 192 186 180
213 208 203 205 206 208 212 206 210 215 217 222 224 226 228 221 219 214 213 209 200 202 202 215 226 224 222 215 223 215 226 230 229 213 211 212 211 217 215 218 214 201 190
205 196 196 198 206 217 210 202 202 216 216 220 228 234 233 230 229 220 219 210 198 199 207 212 225 229 233 225 216 213 211 218 239 201 205 226 202 223 225 218 207 193 189
192 201 209 209 219 228 215 212 208 209 215 220 223 227 229 231 214 214 217 211 209 210 205 205 219 231 234 220 205 210 213 220 230 194 188 225 207 231 232 214 189 181 173
196 205 215 220 223 234 224 221 213 209 218 224 223 217 211 219 216 204 202 207 218 222 222 216 227 238 238 221 210 215 216 215 220 199 195 223 211 228 228 204 183 181 173
212 214 213 213 218 233 221 215 203 207 219 229 227 221 211 211 216 194 194 212 230 247 237 221 233 251 254 216 190 176 178 191 227 215 197 220 213 215 218 216 185 179 175
217 214 219 219 217 233 226 211 200 208 219 226 224 221 218 217 208 190 200 207 227 241 213 199 205 325 208 182 183 196 194 196 208 221 193 200 195 183 213 210 191 174 180